Location: Lecco
(45.8566°N, 9.3977°E)
Time: 22:20:01
(UTC+02:00)

Vanguard 1 Rocket - Pass Details

Date: 18 August 2020
Orbit: 655 x 4221 km, 34.3° (Epoch: 30 September)

Event Time Altitude Azimuth Distance (km) Brightness Sun altitude
Exits shadow 03:30:27 18° 173° (S) 4,638 10.5 -24.8°
Maximum altitude 03:34:07 20° 156° (SSE) 4,103 10.4 -24.5°
Drops below altitude 10° 03:41:26 10° 114° (ESE) 3,982 10.8 -23.7°
Sets 03:45:03 0° 97° (E) 4,495 11.4 -23.4°
